CAPE
1470 1665 1927 2128 2188 2418 1843 592 846 1996 2157 2053 1696 1152 557 367 810 652 720 744 1142 969 947 1244 1128 990 670 993 946 939 923 810 835 975 861 1310 1778 1636 1555 1668 1423 1225 922
2108 2411 2456 2608 2415 2058 31 5 0 1325 2095 2116 1739 297 149 523 878 761 947 868 1106 906 1157 1158 1041 945 1096 1356 1266 1089 984 1018 682 740 610 728 1480 1632 1764 1871 1312 868 729
1897 2108 2628 2594 2631 2261 1294 363 200 1373 2101 2071 1104 154 889 916 790 816 996 1105 908 870 934 1252 935 1001 1373 788 1086 1311 911 1131 1207 705 522 772 959 991 1027 1364 1427 1159 1202
1736 2058 2390 2423 1926 2324 2181 1276 752 1639 2355 2247 1367 406 806 1058 600 997 1248 1380 1239 424 766 1121 1070 1149 1031 1089 1432 1275 1136 1173 1052 1076 770 768 866 877 1249 964 792 986 716
1681 1847 1655 1744 1070 1418 1582 2198 1945 1627 2250 2553 1691 1097 701 615 986 1008 1147 958 291 288 1025 1014 1200 1309 1194 1203 1465 1194 905 1401 703 677 571 821 813 778 896 855 927 792 874
983 1065 1233 1405 1922 2757 2765 1913 448 1690 2398 2679 2224 1680 1190 395 517 783 1159 1151 1250 295 808 1156 1186 1072 1152 733 776 800 1054 1447 1190 929 943 962 1063 1081 770 738 880 825 731
105 275 551 906 906 1116 1681 2426 2331 2229 2339 2386 2544 2339 1857 1402 602 526 589 1004 1132 1327 1153 1106 1389 1190 1297 1229 532 383 351 481 789 1267 1183 1161 774 920 1061 1187 1060 926 934
19 16 14 135 385 665 727 1053 1637 2141 2541 2154 2231 2603 2439 1920 1103 563 364 571 923 1033 1439 1253 1285 1280 1215 1422 1178 1402 1120 1164 1141 874 976 1276 1209 949 1221 1400 1275 1208 549
40 33 35 11 59 264 433 410 733 1269 1571 2179 2547 2317 2491 2350 1189 611 239 456 436 570 778 1434 1401 1402 888 955 1091 1087 855 935 910 1140 878 792 872 596 625 1172 646 196 40
0 0 5 21 33 48 168 551 686 916 875 1248 1737 2316 2429 2555 2028 611 386 495 344 940 1265 797 795 1069 898 584 950 915 1059 1054 935 971 970 599 264 530 150 594 135 74 89
0 11 17 0 13 37 177 564 830 761 710 896 1091 1476 2033 2518 2288 739 480 825 558 1017 1014 1132 1012 671 324 246 434 1106 931 950 907 1012 677 838 1008 1071 851 370 276 126 7
2 0 0 22 6 0 4 354 714 874 775 721 862 1007 1140 1973 1863 842 539 444 773 1025 1066 1026 1054 612 496 191 143 411 418 491 295 350 727 629 526 634 398 283 142 59 0
0 0 2 0 0 26 22 57 292 573 336 138 22 83 700 1479 2092 1229 552 329 231 401 919 966 825 392 273 70 4 47 45 577 473 463 404 521 683 427 344 234 118 107 118
12 11 4 1 0 36 8 0 0 27 2 10 25 59 332 1550 2026 1888 676 250 179 225 267 541 767 685 593 714 457 0 129 527 459 441 323 715 764 441 409 208 25 19 19
18 27 25 21 8 1 1 0 0 0 5 26 4 1 155 545 1552 1640 1220 502 255 168 356 714 752 844 873 850 744 631 409 436 532 469 386 699 689 656 285 98 11 11 24
27 20 32 40 27 12 3 0 0 0 0 161 87 16 31 302 628 731 561 68 3 0 0 153 822 812 777 726 550 661 649 604 469 396 348 703 896 565 221 15 17 30 33
8 28 45 37 23 13 11 2 0 0 0 0 5 0 0 4 89 203 16 0 0 0 0 39 253 558 676 659 527 430 631 728 584 352 359 639 559 342 10 5 29 29 18
18 20 77 148 36 22 25 18 5 3 1 28 9 0 0 0 2 7 0 0 7 0 69 62 114 317 679 633 724 545 426 429 553 446 295 316 180 10 6 14 19 31 22
197 230 157 130 36 19 24 28 16 10 8 12 48 95 79 0 0 0 0 0 25 5 0 0 1 2 40 221 348 560 615 404 334 284 153 83 58 18 9 14 23 13 11
204 197 145 203 135 48 28 15 21 21 12 20 49 163 297 7 0 0 0 0 0 8 8 1 0 12 25 89 149 239 489 494 338 224 134 104 85 25 15 15 23 22 10
349 368 260 196 127 79 57 39 39 32 22 19 27 42 124 308 266 9 4 3 1 0 40 5 21 82 57 15 63 127 331 440 495 286 175 137 31 25 10 8 18 10 6
474 442 368 343 304 161 104 109 60 44 46 33 23 38 96 236 248 136 203 120 20 104 53 3 30 129 28 0 0 28 54 135 352 321 211 85 23 24 12 7 7 4 1
397 410 415 350 304 81 20 85 116 18 31 34 25 78 218 411 219 53 86 115 95 113 92 34 28 38 10 1 0 14 13 93 315 325 136 36 10 11 6 1 1 0 0
298 377 506 337 282 80 45 22 147 1 19 62 124 245 330 499 372 211 106 1 13 60 23 12 15 15 3 3 2 29 82 170 304 107 53 45 35 2 0 0 0 0 1
243 192 154 209 405 436 134 133 314 94 38 86 219 270 476 461 411 344 198 108 37 4 6 4 11 26 13 9 6 17 66 113 90 100 122 73 46 2 0 0 0 0 0
28 327 427 556 667 636 219 188 391 308 374 388 479 440 430 407 387 266 245 112 24 21 12 7 13 27 13 13 22 18 11 0 38 71 126 82 24 0 0 0 0 0 0
CIN
-67 -43 -44 -21 -29 -12 -55 -133 -117 -40 -2 -0 -0 -5 -13 -8 -0 -0 -1 -1 -0 -2 -3 -6 -17 -17 -19 -2 -1 -1 -2 -1 -4 -2 -2 -2 -9 -8 -1 -3 -11 -11 -6
-20 -4 -3 -6 -15 -35 -124 -213 -0 -118 -18 -2 -0 -58 -66 -4 -0 -0 -0 -3 -1 -6 -1 -0 -1 -1 -9 -2 -1 -2 -1 -2 -1 -1 -1 -2 -6 -1 -3 -9 -6 -0 -1
-70 -7 -1 -1 -6 -18 -130 -209 -273 -68 -22 -3 -42 -85 -2 -1 -1 -4 -1 -1 -1 -1 -1 -0 -1 -1 -1 -11 -11 -4 -4 -3 -2 -1 -2 -3 -1 -1 -2 -1 -1 -1 -3
-93 -13 -1 -1 -30 -10 -36 -97 -143 -29 -6 -7 -48 -114 -42 -3 -12 -1 -0 -0 -1 -31 -2 -1 -1 -1 -7 -5 -2 -5 -2 -5 -2 -1 -2 -1 -2 -3 -2 -2 -2 -2 -2
-54 -15 -10 -31 -105 -69 -51 -47 -42 -56 -20 -10 -35 -69 -78 -60 -14 -4 -2 -3 -39 -36 -1 -0 -1 -1 -15 -11 -2 -3 -7 -1 -2 -1 -2 -1 -2 -3 -4 -3 -1 -2 -2
-80 -53 -33 -30 -13 -1 -0 -1 -191 -24 -1 -1 -31 -35 -62 -136 -97 -50 -8 -3 -3 -43 -6 -2 -0 -13 -26 -36 -38 -24 -20 -1 -4 -4 -11 -3 -1 -1 -3 -2 -5 -11 -8
-170 -123 -72 -36 -46 -43 -23 -3 -1 -5 -1 -10 -11 -8 -24 -47 -94 -79 -60 -17 -3 -1 -1 -1 -1 -1 -19 -15 -67 -75 -73 -67 -46 -8 -5 -5 -10 -3 -1 -1 -1 -3 -2
-254 -227 -212 -141 -88 -64 -67 -67 -41 -17 -9 -36 -18 -2 -6 -19 -69 -110 -109 -44 -6 -2 -1 -1 -0 -1 -1 -4 -5 -5 -19 -20 -34 -36 -24 -9 -6 -4 -0 -2 -0 -0 -2
-228 -224 -236 -252 -195 -132 -110 -100 -75 -55 -36 -17 -6 -11 -1 -5 -77 -131 -152 -60 -54 -41 -42 -6 -1 -1 -21 -21 -15 -2 -7 -1 -10 -21 -29 -34 -30 -40 -32 -1 -1 -3 -6
-21 -22 -259 -259 -230 -208 -148 -100 -76 -66 -68 -48 -39 -10 -3 -1 -20 -125 -137 -69 -37 -5 -13 -39 -25 -6 -24 -38 -15 -5 -1 -1 -1 -4 -20 -50 -91 -56 -104 -28 -6 -3 -1
-0 -235 -241 -13 -158 -200 -128 -31 -37 -51 -60 -63 -63 -41 -10 -0 -6 -106 -135 -54 -33 -3 -2 -2 -2 -32 -42 -70 -43 -4 -1 -2 -3 -6 -2 -2 -2 -0 -3 -40 -23 -22 -56
-150 -0 -0 -215 -130 -0 -64 -45 -1 -1 -15 -46 -58 -67 -59 -15 -25 -115 -143 -149 -43 -3 -2 -2 -2 -16 -36 -81 -89 -50 -49 -43 -13 -3 -2 -2 -2 -3 -2 -4 -22 -43 -0
-0 -0 -2 -0 -3 -194 -181 -145 -47 -1 -32 -98 -131 -100 -86 -45 -6 -84 -168 -199 -185 -102 -8 -5 -19 -48 -59 -82 -10 -90 -91 -18 -2 -2 -2 -2 -2 -2 -0 -2 -20 -29 -31
-0 -1 -1 -1 -0 -144 -208 -0 -0 -94 -49 -122 -90 -80 -52 -6 -0 -2 -138 -238 -225 -233 -195 -143 -47 -15 -28 -21 -25 -0 -66 -4 -2 -2 -3 -10 -3 -1 -2 -2 -2 -4 -2
-1 -1 -2 -3 -2 -2 -1 -0 -0 -0 -40 -70 -1 -1 -21 -27 -1 -3 -33 -143 -197 -190 -141 -111 -81 -40 -9 -4 -2 -2 -21 -11 -2 -4 -2 -6 -12 -1 -1 -3 -3 -2 -1
-1 -2 -2 -1 -3 -2 -2 -0 -0 -0 -0 -51 -75 -20 -15 -58 -45 -45 -86 -44 -32 -0 -0 -171 -21 -27 -19 -2 -3 -1 -2 -3 -13 -14 -3 -5 -4 -3 -1 -2 -2 -1 -1
-1 -1 -2 -2 -2 -4 -2 -1 -0 -0 -0 -0 -115 -0 -0 -16 -162 -139 -184 -0 -0 -0 -0 -227 -10 -1 -5 -1 -2 -1 -1 -1 -5 -4 -2 -3 -2 -1 -4 -2 -2 -2 -1
-1 -6 -4 -1 -2 -1 -2 -1 -1 -3 -2 -49 -11 -0 -9 -0 -63 -63 -0 -0 -32 -0 -141 -93 -13 -4 -0 -0 -2 -1 -1 -1 -1 -3 -2 -1 -9 -2 -2 -1 -2 -4 -2
-3 -1 -1 -1 -6 -2 -3 -1 -2 -2 -2 -2 -116 -60 -121 -0 -0 -0 -0 -0 -111 -1 -0 -1 -2 -1 -12 -28 -22 -7 -3 -1 -2 -15 -17 -9 -6 -28 -3 -3 -2 -11 -2
-1 -4 -9 -2 -3 -19 -2 -1 -2 -2 -2 -1 -135 -13 -6 -174 -0 -0 -0 -0 -0 -1 -2 -1 -0 -35 -28 -7 -15 -19 -2 -3 -2 -5 -4 -4 -6 -5 -1 -2 -2 -2 -2
-2 -3 -3 -2 -7 -36 -72 -4 -1 -1 -3 -1 -2 -51 -23 -12 -15 -47 -0 -0 -0 -1 -82 -2 -10 -7 -4 -10 -24 -29 -8 -9 -1 -2 -2 -3 -4 -1 -3 -1 -2 -3 -2
-2 -2 -2 -1 -1 -4 -28 -39 -103 -1 -3 -1 -3 -46 -75 -13 -1 -14 -12 -35 -21 -42 -34 -1 -14 -15 -32 -0 -0 -44 -46 -5 -7 -2 -2 -4 -2 -3 -2 -2 -2 -2 -2
-1 -2 -2 -2 -2 -58 -106 -77 -82 -2 -2 -2 -59 -74 -58 -4 -21 -103 -66 -34 -23 -27 -18 -9 -1 -2 -2 -0 -0 -32 -14 -3 -3 -1 -3 -26 -2 -2 -2 -2 -1 -1 -0
-2 -1 -4 -15 -9 -64 -107 -166 -58 -2 -68 -77 -51 -19 -4 -4 -2 -12 -42 -2 -13 -72 -9 -1 -1 -1 -1 -1 -1 -30 -5 -4 -2 -3 -16 -51 -64 -6 -0 -0 -0 -0 -2
-5 -19 -4 -2 -2 -2 -37 -46 -8 -74 -147 -131 -11 -4 -0 -1 -1 -1 -5 -23 -86 -0 -1 -0 -0 -0 -0 -0 -8 -6 -6 -15 -9 -3 -4 -36 -37 -7 -0 -0 -0 -0 -0
-85 -7 -3 -3 -2 -1 -40 -41 -16 -26 -25 -28 -8 -1 -1 -2 -1 -1 -3 -10 -68 -15 -1 -2 -1 -0 -0 -35 -15 -12 -45 -0 -21 -49 -22 -11 -69 -0 -0 -0 -0 -0 -0
Wind_Speed
4 2 7 16 12 7 7 5 19 17 21 22 21 19 14 13 10 14 23 22 22 22 21 20 21 17 25 16 14 14 15 12 13 15 15 14 16 13 18 17 14 15 11
9 5 3 8 10 5 4 16 23 17 18 14 16 10 8 1 14 17 18 21 24 21 18 20 21 18 15 14 13 7 12 12 16 17 20 19 13 15 18 20 19 20 18
20 14 11 11 12 10 6 10 3 7 12 6 6 7 6 24 23 12 18 20 22 19 16 18 17 15 13 9 15 11 7 9 8 18 22 11 18 18 18 16 17 19 16
16 15 15 14 13 11 10 10 7 1 2 3 4 7 8 19 21 12 11 16 18 24 23 22 21 13 13 9 10 8 17 18 13 16 17 18 14 17 18 22 21 14 17
18 16 17 18 19 19 6 11 7 6 2 3 1 4 10 18 19 21 17 13 17 25 31 19 23 19 17 14 13 5 16 13 12 15 16 17 18 18 20 22 22 23 21
20 19 19 20 21 22 24 36 15 18 9 3 2 1 1 4 22 22 25 19 14 10 29 28 28 12 15 21 14 27 17 12 20 17 18 13 14 19 19 19 23 26 25
22 22 21 21 23 22 23 25 25 18 11 7 8 4 5 4 6 14 12 22 19 14 12 22 22 21 14 18 11 9 27 16 14 19 17 16 20 19 20 22 19 18 18
27 26 25 24 24 25 25 25 26 25 24 21 21 15 6 7 6 8 11 15 26 27 21 22 26 26 19 17 18 16 16 14 13 12 11 15 17 19 19 21 22 20 18
32 32 31 30 29 30 31 30 29 28 28 28 27 24 17 8 9 9 9 10 21 29 31 28 30 27 26 19 19 17 16 15 15 11 15 22 20 20 20 18 17 20 23
38 36 35 34 34 34 35 35 33 32 32 31 31 32 21 20 13 10 10 10 11 23 32 30 28 30 26 23 16 20 18 21 18 13 15 20 20 17 13 12 16 20 26
40 40 40 38 37 36 37 37 38 36 36 34 34 33 33 30 23 15 12 11 12 16 20 27 28 24 30 28 18 20 23 26 21 16 11 14 13 13 11 9 11 17 24
41 40 40 39 39 40 39 38 38 38 38 38 37 36 33 33 31 24 15 15 13 19 21 22 27 20 18 17 19 21 29 26 21 16 13 15 15 12 10 9 9 11 18
43 42 38 36 37 38 39 40 40 38 38 40 39 38 36 33 31 24 21 17 15 21 27 29 32 25 20 19 19 23 23 20 16 13 13 14 13 13 14 12 12 12 15
41 40 39 35 33 33 36 38 40 41 40 39 37 36 36 33 28 25 23 21 21 18 18 25 31 31 25 25 23 21 19 19 16 14 12 15 17 14 13 13 12 9 12
36 35 36 36 36 34 33 37 39 40 41 38 36 36 33 34 32 28 23 21 19 19 25 25 24 27 29 29 27 23 19 19 19 17 19 18 17 18 15 14 14 15 15
33 29 30 33 36 36 35 37 35 41 46 40 40 37 38 37 36 27 24 24 20 26 26 24 31 30 29 32 31 30 28 23 21 19 19 20 18 18 16 14 14 15 15
29 27 28 33 35 37 37 38 39 36 35 40 41 40 38 38 33 32 30 34 30 21 26 20 21 30 33 33 33 33 31 26 23 19 18 18 15 14 16 15 14 15 15
24 20 27 35 38 39 38 37 39 37 37 34 32 33 35 34 33 32 30 31 31 28 24 19 15 26 30 30 34 35 28 26 21 19 17 15 14 14 14 14 16 14 12
15 17 21 30 32 36 37 37 37 37 37 36 35 30 33 33 31 29 29 32 30 28 27 26 24 26 29 30 32 36 33 25 22 19 16 17 16 15 16 17 14 15 15
7 11 23 31 33 32 32 34 36 35 36 34 33 32 32 26 31 30 29 30 35 36 34 28 29 23 27 22 26 30 33 29 22 19 17 18 17 17 17 15 13 11 11
6 9 13 25 29 32 33 32 32 32 34 32 33 34 35 28 33 31 32 37 41 44 45 40 32 37 29 20 21 31 33 34 30 24 20 20 17 18 17 14 12 12 11
20 18 23 20 28 32 33 35 35 38 33 30 34 38 29 37 39 36 38 35 39 44 37 25 34 41 35 24 18 32 35 35 32 28 22 20 18 17 16 14 12 10 9
20 29 33 32 31 33 33 35 37 39 33 29 34 39 30 35 37 38 40 41 38 38 36 31 38 42 42 39 21 24 29 34 29 25 24 20 18 16 15 12 11 10 8
23 35 29 33 34 34 32 31 32 33 29 32 36 38 39 35 36 35 36 38 42 42 37 36 35 36 33 34 27 23 27 32 29 24 21 19 18 16 14 13 12 10 8
28 30 32 32 33 33 32 33 28 26 27 36 38 38 37 37 38 37 38 38 39 38 37 34 35 35 35 20 17 18 26 33 33 22 21 20 19 17 15 12 11 9 8
19 29 32 31 30 29 30 31 32 30 33 34 36 37 37 39 39 39 39 38 34 34 34 30 30 30 28 16 11 12 19 32 26 23 19 17 17 16 13 12 11 10 9
Wind_Direction
148 153 333 309 323 329 335 10 315 319 315 314 318 316 312 301 270 267 264 262 259 262 270 275 270 276 258 280 287 297 296 319 311 309 324 332 327 339 309 324 347 340 353
357 1 348 326 321 313 320 336 319 309 317 332 331 333 330 298 272 266 266 257 255 266 277 274 267 272 273 276 292 319 305 318 305 306 303 310 333 329 319 314 322 317 327
319 324 334 340 327 325 310 338 120 353 327 11 31 350 329 268 261 274 261 260 261 272 277 268 271 272 273 281 282 298 322 324 340 305 297 347 321 321 324 332 329 325 330
336 323 324 336 339 342 327 307 318 112 32 27 116 328 314 283 264 269 267 269 270 266 265 264 266 274 273 281 294 302 291 294 318 316 317 319 333 325 324 315 318 333 328
335 328 319 321 317 320 338 302 292 292 287 154 51 340 303 289 275 271 272 272 267 263 251 266 262 268 273 278 286 298 292 305 319 318 322 322 322 323 319 319 318 318 321
329 329 326 320 320 314 304 253 183 293 309 218 219 188 246 205 275 269 265 269 267 260 260 257 257 269 276 272 281 266 291 306 300 311 316 328 330 324 326 323 318 310 314
319 320 322 317 314 315 312 311 312 312 310 295 294 240 210 220 209 269 269 269 270 271 263 267 265 269 269 275 275 270 276 296 301 305 313 318 318 323 322 318 324 327 326
305 307 309 312 310 308 307 306 303 300 296 297 292 292 253 220 215 212 208 272 266 268 274 268 266 265 269 271 276 283 288 295 297 299 302 312 317 318 320 317 317 322 326
298 297 298 300 301 299 296 297 296 296 295 291 289 289 286 253 232 221 222 243 270 268 266 268 268 268 267 269 274 279 286 292 296 293 301 304 308 312 314 321 323 321 319
292 293 292 293 293 293 289 287 289 289 290 288 286 283 285 283 266 232 224 238 253 274 266 265 272 266 271 269 266 277 283 289 292 299 305 303 303 309 312 314 322 319 313
290 288 287 287 287 288 287 284 282 283 284 287 284 284 280 280 281 267 230 245 245 270 278 271 270 270 269 272 268 275 280 285 292 295 292 302 307 313 315 314 320 319 313
289 287 284 284 283 282 282 282 281 279 281 282 282 282 283 279 278 277 253 221 255 271 276 278 274 274 271 265 269 274 278 283 289 291 295 300 302 306 311 317 325 328 322
289 287 286 284 282 281 280 279 278 278 279 278 278 278 279 279 277 274 266 255 238 270 274 275 274 280 279 279 275 276 277 281 282 282 287 296 300 304 311 317 322 327 324
291 288 285 283 282 282 280 278 275 273 273 274 276 278 277 275 274 272 269 266 264 260 261 277 275 274 275 278 280 277 273 276 277 277 278 293 301 298 302 302 310 321 327
293 292 287 281 278 281 280 277 274 272 269 271 274 275 275 272 270 267 264 262 265 269 277 276 268 269 269 270 272 274 275 272 274 279 287 291 289 290 293 297 302 310 315
295 295 291 284 279 277 279 279 275 269 265 267 268 272 273 273 273 267 262 264 274 279 281 280 272 265 264 265 267 268 270 271 274 279 284 288 287 281 286 293 299 305 312
295 296 292 285 279 276 276 276 273 273 270 265 266 269 270 270 272 266 266 269 278 280 278 284 279 265 264 265 265 266 268 271 274 275 281 284 280 279 286 290 294 303 309
298 294 292 282 275 272 272 274 270 270 269 270 268 269 269 269 268 266 267 266 272 270 272 276 278 273 268 266 266 267 268 269 269 271 272 275 275 279 282 287 292 299 306
296 298 297 285 279 272 272 271 269 268 268 270 267 272 270 269 267 267 265 262 262 262 268 271 277 281 273 266 266 267 265 265 264 264 263 270 272 275 280 285 291 297 303
289 297 297 286 279 278 274 270 268 269 267 269 268 269 269 269 264 264 263 260 256 258 263 272 271 281 276 276 269 266 263 259 260 259 263 266 268 271 276 280 285 292 303
310 320 315 296 285 277 273 275 273 272 267 268 267 265 261 262 261 263 261 255 253 251 251 259 266 260 272 279 278 265 261 260 260 260 260 264 265 267 271 275 281 289 296
307 310 306 304 286 279 275 272 271 263 265 268 263 256 261 255 253 257 252 255 253 246 260 264 263 257 265 275 282 271 258 257 258 257 256 258 259 261 266 271 278 282 287
307 290 276 274 281 276 277 270 262 251 260 264 257 248 257 252 252 251 247 247 252 255 261 268 263 259 260 267 273 275 265 254 249 250 252 251 253 255 258 265 269 271 276
229 258 284 248 258 267 273 272 262 256 259 256 250 247 245 252 252 254 255 254 252 255 265 267 268 269 273 275 277 268 260 250 243 241 242 246 249 251 257 264 265 269 275
232 232 239 241 251 262 258 254 267 268 262 248 246 244 249 251 252 258 259 259 260 262 267 271 270 270 271 274 268 261 246 240 241 237 241 246 249 252 256 256 259 263 267
223 228 239 248 264 267 262 255 248 254 250 252 248 248 249 250 255 259 263 264 266 267 271 275 272 271 273 269 254 218 221 237 236 237 242 245 248 251 252 254 254 266 272